FW6662 Weather Reports


Display with metric or nautical units.
time (UTC)temp
F
wind
direction
speed
MPH
gust
MPH
rain 1hr
in
rain 24hr
in
rain mn
in
humidity
%
barometer
mb
20260503192504 60 279 6.0 14.0 0.00 0.00 0.00 36 1011.9
20260503192025 59 272 6.0 23.0 0.00 0.00 0.00 39 1011.9
20260503191504 59 268 4.0 23.0 0.00 0.00 0.00 37 1012.0
20260503191025 58 275 4.0 14.0 0.00 0.00 0.00 39 1012.0
20260503190504 58 267 4.0 16.0 0.00 0.00 0.00 38 1012.1
20260503190004 58 239 4.0 16.0 0.00 0.00 0.00 41 1012.3
20260503185505 59 238 4.0 16.0 0.00 0.00 0.00 36 1012.1
20260503185026 58 233 4.0 13.0 0.00 0.00 0.00 38 1012.5
20260503184504 58 227 3.0 10.0 0.00 0.00 0.00 41 1012.5
20260503184025 58 267 3.0 13.0 0.00 0.00 0.00 43 1012.6
20260503183504 58 253 3.0 13.0 0.00 0.00 0.00 43 1012.7
20260503183004 58 236 3.0 7.0 0.00 0.00 0.00 42 1012.7
20260503182505 57 285 3.0 16.0 0.00 0.00 0.00 44 1012.7
20260503182005 56 272 6.0 20.0 0.00 0.00 0.00 43 1012.9
20260503181505 56 279 6.0 20.0 0.00 0.00 0.00 41 1012.8
20260503181004 56 309 4.0 12.0 0.00 0.00 0.00 40 1013.1
20260503180525 56 304 3.0 9.0 0.00 0.00 0.00 44 1013.0
20260503180004 55 293 1.0 9.0 0.00 0.00 0.00 41 1013.0
20260503175504 55 253 1.0 4.0 0.00 0.00 0.00 40 1013.2
20260503175004 55 223 1.0 7.0 0.00 0.00 0.00 45 1013.2
20260503174525 54 244 3.0 9.0 0.00 0.00 0.00 40 1013.3
20260503174004 54 249 4.0 10.0 0.00 0.00 0.00 44 1013.3
20260503173504 53 243 4.0 14.0 0.00 0.00 0.00 48 1013.5
20260503173004 53 243 4.0 14.0 0.00 0.00 0.00 47 1013.5
20260503172504 54 246 4.0 12.0 0.00 0.00 0.00 44 1013.4
20260503172004 54 251 4.0 12.0 0.00 0.00 0.00 42 1013.5
20260503171504 54 249 4.0 12.0 0.00 0.00 0.00 42 1013.5
20260503171004 53 260 4.0 14.0 0.00 0.00 0.00 51 1013.6
20260503170504 53 254 4.0 14.0 0.00 0.00 0.00 42 1013.7
20260503150504 48 273 6.0 19.0 0.00 0.00 0.00 47 1014.2
20260503131004 42 259 3.0 12.0 0.00 0.00 0.00 72 1014.6
20260503130504 42 263 4.0 12.0 0.00 0.00 0.00 69 1014.7
20260503110503 37 290 1.0 3.0 0.00 0.00 0.00 82 1014.2
20260503090503 36 322 0.0 3.0 0.00 0.00 0.00 83 1013.3
20260503081503 38 0 0.0 0.0 0.00 0.00 0.00 81 1013.3
20260503081003 38 0 0.0 0.0 0.00 0.00 0.00 80 1013.3
20260503080503 38 0 0.0 0.0 0.00 0.00 0.00 79 1013.3
20260503072503 39 303 0.0 3.0 0.00 0.00 0.00 78 1013.3
20260503072003 39 257 1.0 4.0 0.00 0.00 0.00 77 1013.2
20260503071524 39 239 1.0 4.0 0.00 0.00 0.00 78 1013.2
20260503071024 39 253 1.0 4.0 0.00 0.00 0.00 77 1013.2
20260503070503 39 337 1.0 7.0 0.00 0.00 0.00 77 1013.3
20260503055024 41 292 1.0 6.0 0.00 0.00 0.00 75 1013.5
20260503054503 41 277 1.0 6.0 0.00 0.00 0.00 75 1013.6
20260503054003 41 300 1.0 4.0 0.00 0.00 0.00 72 1013.6
20260503053503 41 288 1.0 6.0 0.00 0.00 0.00 75 1013.6
20260503053003 41 294 1.0 12.0 0.00 0.00 0.00 73 1013.6
20260503052505 41 306 1.0 12.0 0.00 0.00 0.00 73 1013.7
20260503052005 41 311 1.0 7.0 0.00 0.00 0.00 72 1013.8
20260503051505 41 324 1.0 7.0 0.00 0.00 0.00 72 1013.7
20260503051005 41 302 1.0 12.0 0.00 0.00 0.00 72 1013.9
20260503050505 41 282 1.0 12.0 0.00 0.00 0.00 71 1013.9
20260503050005 42 294 1.0 7.0 0.00 0.00 0.00 72 1013.8
20260503045505 42 289 1.0 7.0 0.00 0.01 0.00 73 1013.9
20260503045005 42 250 1.0 4.0 0.00 0.01 0.00 72 1014.0
20260503044506 42 242 1.0 4.0 0.00 0.01 0.00 72 1014.0
20260503044026 42 200 0.0 3.0 0.00 0.01 0.00 72 1014.1
20260503043505 42 226 1.0 4.0 0.00 0.01 0.00 70 1014.1
20260503043005 42 295 1.0 6.0 0.00 0.01 0.00 70 1014.2
20260503042505 42 305 0.0 6.0 0.00 0.01 0.00 70 1014.2
20260503042005 42 258 0.0 3.0 0.00 0.01 0.00 70 1014.1
20260503041505 42 308 0.0 3.0 0.00 0.01 0.00 69 1014.1
20260503041005 42 89 0.0 3.0 0.00 0.01 0.00 68 1014.2
20260503040506 42 161 0.0 1.0 0.00 0.01 0.00 70 1014.2
20260503040005 42 168 0.0 3.0 0.00 0.01 0.00 68 1014.2
20260503035505 42 245 0.0 3.0 0.00 0.01 0.01 66 1014.2
20260503035005 43 274 0.0 3.0 0.00 0.02 0.01 67 1014.2
20260503034505 43 272 1.0 6.0 0.00 0.04 0.01 66 1014.1
20260503034005 43 236 0.0 6.0 0.00 0.04 0.01 64 1014.1
20260503033505 43 199 1.0 6.0 0.00 0.04 0.01 66 1014.0
20260503033005 43 224 1.0 6.0 0.00 0.05 0.01 65 1013.9
20260503032505 43 245 1.0 6.0 0.00 0.05 0.01 64 1013.8
20260503032005 43 298 1.0 6.0 0.00 0.05 0.01 66 1013.9
20260503031505 43 270 1.0 6.0 0.00 0.06 0.01 68 1013.9
20260503031005 43 256 0.0 4.0 0.00 0.06 0.01 69 1013.9
20260503030505 43 269 0.0 4.0 0.00 0.06 0.01 71 1013.9
20260503030005 43 284 1.0 9.0 0.00 0.07 0.01 69 1014.0
20260503025526 43 312 1.0 9.0 0.00 0.07 0.01 68 1013.9
20260503025005 43 333 1.0 6.0 0.00 0.07 0.01 68 1013.9
20260503024505 44 305 1.0 6.0 0.00 0.07 0.01 71 1013.9
20260503024005 44 272 0.0 3.0 0.00 0.07 0.01 70 1014.1
20260503023505 44 220 0.0 3.0 0.00 0.07 0.01 68 1014.1
20260503023005 44 228 0.0 3.0 0.00 0.07 0.01 68 1014.1
20260503022504 44 81 1.0 7.0 0.00 0.07 0.01 68 1014.1
20260503022005 44 113 0.0 7.0 0.00 0.08 0.01 68 1014.1
20260503021526 44 258 1.0 7.0 0.00 0.08 0.01 64 1014.1
20260503021005 44 217 1.0 4.0 0.00 0.08 0.01 68 1014.1
20260503020505 44 134 1.0 6.0 0.00 0.08 0.01 67 1014.0
20260503020005 44 175 1.0 6.0 0.00 0.08 0.01 67 1014.0
20260503015526 44 293 0.0 3.0 0.00 0.08 0.01 68 1014.0
20260503015005 44 356 1.0 3.0 0.00 0.08 0.01 67 1013.9
20260503014504 44 355 1.0 3.0 0.00 0.08 0.01 67 1013.9
20260503014005 44 352 1.0 6.0 0.00 0.08 0.01 67 1014.0
20260503013505 44 352 0.0 6.0 0.00 0.08 0.01 64 1013.9
20260503013005 45 325 0.0 3.0 0.00 0.09 0.01 66 1013.9
20260503012504 45 326 0.0 6.0 0.00 0.09 0.01 64 1013.9
20260503012004 45 303 1.0 6.0 0.00 0.09 0.01 63 1013.9
20260503011505 45 158 1.0 4.0 0.00 0.09 0.01 66 1013.8
20260503011004 45 284 1.0 6.0 0.00 0.10 0.01 64 1013.9
20260503010505 45 321 1.0 9.0 0.00 0.10 0.01 67 1013.7
20260503010005 45 259 1.0 9.0 0.00 0.10 0.01 63 1013.6
20260503005505 45 200 1.0 6.0 0.00 0.11 0.01 65 1013.5
20260503005005 45 262 3.0 7.0 0.00 0.11 0.01 63 1013.5
20260503004504 46 264 3.0 7.0 0.00 0.13 0.01 64 1013.4
20260503004005 46 310 1.0 7.0 0.00 0.14 0.01 63 1013.4
20260503003504 46 311 1.0 7.0 0.00 0.15 0.01 64 1013.3
20260503003005 46 293 0.0 7.0 0.00 0.16 0.01 65 1013.2
20260503002504 46 309 1.0 10.0 0.00 0.16 0.01 63 1013.2
20260503002004 46 299 3.0 10.0 0.00 0.16 0.01 62 1013.2
20260503001505 46 295 1.0 10.0 0.00 0.17 0.01 63 1013.2
20260503001005 46 316 0.0 9.0 0.00 0.17 0.01 63 1013.2
20260503000505 47 304 1.0 6.0 0.00 0.17 0.01 64 1013.2
20260503000004 47 297 1.0 6.0 0.00 0.17 0.01 61 1013.1
20260502235504 47 315 1.0 7.0 0.00 0.18 0.01 60 1013.0
20260502235004 47 319 1.0 7.0 0.00 0.18 0.01 61 1013.0
20260502234525 47 305 1.0 7.0 0.00 0.19 0.01 57 1013.0
20260502234004 48 312 1.0 6.0 0.00 0.19 0.01 61 1013.1
20260502233504 48 312 1.0 10.0 0.00 0.19 0.01 59 1013.2
20260502233005 48 285 3.0 10.0 0.00 0.19 0.01 57 1013.1
20260502232525 48 294 1.0 9.0 0.00 0.20 0.01 54 1013.0
20260502232005 48 307 3.0 10.0 0.00 0.20 0.01 53 1012.9
20260502231525 48 309 3.0 12.0 0.00 0.20 0.01 55 1013.0
20260502231025 49 298 3.0 12.0 0.00 0.20 0.01 57 1013.0
20260502230525 49 256 1.0 7.0 0.00 0.20 0.01 55 1013.0
20260502230005 49 276 0.0 7.0 0.00 0.20 0.01 55 1012.9
20260502225504 49 284 1.0 6.0 0.00 0.20 0.01 56 1012.8
20260502225004 49 282 1.0 12.0 0.00 0.20 0.01 53 1012.9
20260502224504 50 267 1.0 12.0 0.00 0.20 0.01 52 1012.8
20260502224004 50 260 3.0 12.0 0.00 0.20 0.01 51 1012.7
20260502223525 50 271 3.0 12.0 0.00 0.20 0.01 54 1012.7
20260502223004 50 277 3.0 7.0 0.00 0.20 0.01 52 1012.7
20260502222504 50 287 3.0 6.0 0.00 0.20 0.01 50 1012.7
20260502222004 50 284 3.0 10.0 0.00 0.20 0.01 51 1012.6
20260502221504 50 279 3.0 10.0 0.00 0.20 0.01 49 1012.6
20260502221004 51 283 3.0 10.0 0.00 0.20 0.01 49 1012.6
20260502220504 51 285 3.0 10.0 0.00 0.20 0.01 51 1012.6
20260502220005 51 256 3.0 7.0 0.00 0.20 0.01 49 1012.6
20260502215504 51 230 1.0 7.0 0.00 0.20 0.01 50 1012.5
20260502215004 51 263 1.0 6.0 0.00 0.20 0.01 47 1012.5
20260502214504 51 277 1.0 6.0 0.00 0.20 0.01 51 1012.5
20260502214004 51 273 1.0 4.0 0.00 0.20 0.01 49 1012.4
20260502213504 51 276 1.0 4.0 0.00 0.20 0.01 49 1012.5
20260502213026 51 299 3.0 9.0 0.00 0.20 0.01 50 1012.6
20260502212504 51 325 3.0 9.0 0.00 0.20 0.01 48 1012.3
20260502212004 52 304 3.0 7.0 0.00 0.20 0.01 45 1012.3
20260502211525 52 294 3.0 7.0 0.00 0.20 0.01 46 1012.3
20260502211004 52 294 4.0 14.0 0.00 0.20 0.01 45 1012.3
20260502210504 52 291 3.0 14.0 0.00 0.20 0.01 44 1012.3
20260502210004 52 311 3.0 7.0 0.00 0.20 0.01 48 1012.3
20260502205525 52 307 3.0 9.0 0.00 0.20 0.01 49 1012.3
20260502205025 52 305 3.0 10.0 0.00 0.20 0.01 44 1012.2
20260502204504 52 317 4.0 10.0 0.00 0.20 0.01 45 1012.3
20260502204005 53 315 3.0 10.0 0.00 0.20 0.01 47 1012.4
20260502203504 53 283 3.0 10.0 0.00 0.20 0.01 45 1012.3
20260502203004 53 294 3.0 7.0 0.00 0.20 0.01 44 1012.5
20260502202525 53 289 3.0 7.0 0.00 0.20 0.01 47 1012.5
20260502202004 53 282 3.0 6.0 0.00 0.20 0.01 48 1012.4
20260502201504 53 308 3.0 9.0 0.00 0.20 0.01 46 1012.6
20260502201025 53 318 3.0 9.0 0.00 0.20 0.01 44 1012.6
20260502200504 54 303 3.0 10.0 0.00 0.20 0.01 46 1012.7
20260502200025 54 293 3.0 10.0 0.00 0.20 0.01 45 1012.6
20260502195504 54 255 3.0 10.0 0.00 0.20 0.01 41 1012.8
20260502195025 54 243 3.0 12.0 0.00 0.20 0.01 46 1012.9
20260502194525 54 283 3.0 12.0 0.00 0.20 0.01 44 1013.0
20260502194004 53 299 3.0 12.0 0.00 0.20 0.01 45 1013.1
20260502193504 53 280 1.0 12.0 0.00 0.20 0.01 49 1013.1
20260502193004 52 206 1.0 6.0 0.00 0.20 0.01 49 1013.2